GFSWCAN_250_rhum_102.txt.gz
RH
4 5 5 6 6 5 5 6 6 7 8 8 9 10 12 16 20 22 22 25 24 23 22 26 34 40 48 56 66 69 84 97 95 100 99 97 96 94 97 91 86 79 72 61 56 59 53 36 26 22 19 17 15 13
4 4 5 5 5 5 5 6 6 7 9 9 10 12 15 20 21 21 27 27 26 26 32 38 39 43 50 57 64 82 89 92 92 99 97 96 100 96 88 79 73 66 60 61 61 45 29 23 19 17 16 13 10 10
4 5 5 4 5 5 6 6 7 8 10 10 12 15 19 20 25 28 29 29 29 30 34 43 51 67 71 77 84 94 100 100 100 100 99 97 93 82 80 72 61 63 59 47 34 28 22 20 18 15 12 11 11 10
4 4 4 4 5 6 6 7 8 11 13 14 15 17 22 28 27 28 30 32 34 36 54 62 71 76 78 81 82 84 93 94 96 97 91 85 84 78 78 70 61 55 46 28 22 25 21 19 15 14 13 12 12 11
5 4 5 5 6 6 7 8 10 12 13 12 17 23 28 27 27 30 32 35 47 57 70 72 76 78 76 76 83 83 86 90 87 82 81 75 70 72 60 56 51 40 29 24 23 21 19 17 14 15 15 14 15 16
4 4 6 6 6 7 8 9 12 12 13 20 24 25 26 30 32 33 33 48 62 68 68 70 72 77 81 86 85 84 86 91 86 74 67 60 49 42 39 37 32 31 29 21 19 19 17 16 16 17 17 17 16 16
5 6 6 7 8 8 9 10 12 15 22 23 25 29 32 33 33 33 43 54 60 63 67 77 82 87 87 89 88 85 81 78 70 57 44 39 35 32 26 24 26 24 22 19 18 18 16 16 17 17 16 17 18 21
6 8 8 8 8 9 10 12 15 24 22 24 30 32 34 36 35 39 51 56 61 74 78 78 83 83 87 85 83 79 64 54 44 41 38 31 26 23 21 20 18 20 20 18 16 17 16 18 18 18 16 18 20 23
6 7 8 9 9 9 12 18 24 24 24 29 34 35 37 37 35 41 50 52 64 70 70 79 84 79 79 68 56 50 46 43 37 32 28 26 25 22 16 17 18 19 18 16 14 15 17 17 19 17 16 18 21 25
6 7 8 9 10 10 18 24 26 25 29 34 37 39 40 36 37 43 48 55 59 68 76 68 64 64 56 52 51 47 39 30 23 26 26 20 16 14 15 14 15 14 14 14 14 14 15 19 20 17 17 16 18 22
6 7 8 10 11 13 21 25 25 24 29 36 39 39 37 37 35 36 46 54 61 59 54 57 57 54 54 51 45 34 28 25 23 19 16 14 13 12 11 12 12 12 13 12 12 13 14 14 16 17 18 17 20 26
6 8 8 9 11 17 24 26 24 26 36 38 39 38 39 39 37 43 50 57 55 56 54 57 57 56 50 42 36 29 25 20 16 14 12 11 10 10 10 10 11 11 11 12 11 12 14 15 17 18 17 17 31 42
6 8 9 10 12 19 24 23 25 34 39 41 44 42 43 45 52 53 46 46 51 57 56 57 54 49 44 35 27 22 20 17 14 12 11 10 10 9 10 10 11 12 13 13 13 14 15 16 15 18 24 34 35 40
6 8 9 12 14 18 22 23 30 38 42 45 43 46 47 49 45 43 47 52 50 52 52 48 49 44 32 26 22 20 17 14 12 12 11 10 9 9 10 10 10 11 11 12 12 12 12 14 16 19 27 29 33 38
7 8 9 12 14 18 22 25 30 35 43 46 46 47 44 42 45 45 46 49 47 48 49 44 36 30 25 21 20 17 15 13 13 11 10 9 9 9 9 10 10 10 10 11 12 13 14 15 15 19 27 31 40 52
8 9 10 12 15 18 23 28 33 37 44 47 44 41 40 43 45 48 48 49 56 52 43 36 32 26 21 20 18 17 15 14 12 11 10 9 9 9 10 11 11 12 13 13 13 14 15 16 23 34 46 61 75 88
7 9 10 13 16 18 21 27 34 41 44 46 46 47 48 49 50 50 54 53 49 44 38 30 27 21 23 20 18 17 15 13 12 10 10 10 11 12 13 14 14 15 16 17 21 26 35 41 52 66 81 91 96 98
8 8 10 12 15 18 22 25 27 34 40 44 46 48 48 50 52 52 52 47 42 36 29 26 24 22 22 19 18 16 15 15 14 12 12 13 14 17 19 20 22 25 28 32 36 47 59 71 81 89 93 95 89 86
8 8 9 12 14 18 20 24 29 36 39 44 47 52 53 51 50 48 44 40 36 32 26 25 24 23 21 19 18 16 15 17 16 15 15 16 20 22 22 26 33 33 42 61 70 82 86 86 89 89 87 85 89 94
8 10 11 12 15 17 20 24 30 35 40 43 46 46 46 46 45 42 37 33 31 28 26 27 24 23 20 19 18 16 17 16 17 17 19 24 26 26 35 42 41 62 70 80 84 83 87 87 84 86 91 94 94 91
8 10 11 13 14 14 15 20 24 26 30 33 36 37 37 37 34 31 29 28 27 26 28 27 24 22 21 19 17 17 18 18 18 20 25 28 29 39 45 54 75 78 83 84 85 90 82 85 92 97 95 94 91 91
7 8 9 11 11 12 13 15 18 18 20 24 25 26 27 27 26 25 21 22 23 25 29 25 21 21 19 18 17 19 20 20 21 28 28 33 39 54 70 80 85 87 85 89 88 83 87 92 92 90 92 92 93 96
8 9 9 9 9 10 12 13 14 15 17 18 20 22 22 22 22 20 19 21 24 26 25 19 19 19 18 17 18 20 22 21 26 30 37 43 57 78 83 86 88 88 87 91 90 88 88 86 86 90 92 97 100 100
8 8 10 11 12 12 13 14 15 16 16 17 16 16 18 18 18 17 19 22 24 21 18 15 18 18 17 17 18 22 22 22 29 37 46 59 84 89 88 92 92 87 88 92 90 88 84 81 89 94 98 98 96 93
7 8 8 9 9 11 11 12 12 12 12 14 14 15 16 16 16 17 19 19 16 14 13 16 18 16 16 17 19 23 22 24 34 46 56 75 86 92 95 96 90 90 94 93 92 91 85 86 92 93 93 91 87 84
6 7 8 8 9 10 10 10 11 12 12 12 12 13 13 14 16 16 15 12 12 13 15 16 15 14 17 17 19 25 24 29 40 47 70 81 90 96 95 92 92 95 94 91 90 93 89 87 90 89 85 84 82 78
8 8 8 9 9 9 9 10 10 10 10 11 12 12 13 13 13 12 11 11 13 14 14 14 14 16 18 18 23 27 29 36 44 59 76 84 91 91 90 93 95 95 91 87 88 89 85 84 83 82 78 77 77 75
5 5 6 7 7 6 7 7 7 8 9 9 10 11 11 11 11 10 10 12 13 14 13 13 14 18 17 19 24 29 35 41 54 66 77 85 88 90 95 99 99 95 89 84 82 80 79 78 78 75 70 70 72 73
7 6 5 5 6 6 7 8 8 8 8 8 9 9 9 9 9 8 10 12 13 13 14 14 16 17 17 20 25 32 36 47 60 73 82 89 87 86 91 94 95 92 87 83 77 75 74 72 70 66 65 69 71 70
7 7 8 8 8 6 6 6 7 7 7 7 8 8 8 8 8 9 11 12 12 11 12 14 16 18 17 19 26 32 38 50 61 68 79 84 85 85 88 90 89 85 78 75 73 71 69 68 68 65 64 67 68 69
6 7 7 7 7 8 9 10 10 10 10 10 10 10 10 11 11 12 13 13 12 11 12 14 16 17 17 18 23 29 36 48 58 64 68 70 75 79 80 81 82 81 77 72 70 68 65 64 63 63 64 66 68 69
8 8 8 8 8 7 7 8 9 10 12 13 13 13 13 13 13 12 12 12 13 14 14 15 16 16 18 20 22 26 32 42 53 58 59 60 63 68 72 74 73 70 66 65 63 62 62 62 62 61 62 63 64 65
7 7 8 9 10 10 9 9 8 9 9 10 11 11 11 11 10 9 11 12 12 12 13 15 16 17 17 18 20 24 30 37 44 49 52 54 56 57 58 58 59 59 58 58 57 58 58 58 58 58 59 59 58 57

GFSWCAN_250_rhum_105.txt.gz
RH
5 6 6 6 7 7 7 7 6 6 6 6 6 6 6 7 8 9 11 16 17 19 22 23 23 22 22 22 23 31 47 68 77 93 95 97 100 97 96 97 100 97 92 89 84 72 65 60 57 50 40 30 23 18
6 7 6 6 7 8 6 7 7 7 7 7 6 7 8 9 10 13 16 17 20 24 25 25 23 23 22 23 33 48 64 76 86 89 94 97 99 91 97 94 91 96 85 80 69 57 59 55 44 34 25 20 18 15
6 6 6 6 7 6 6 7 8 8 8 8 8 8 10 12 16 16 17 24 27 27 26 27 26 24 30 39 48 57 65 77 84 100 100 94 98 98 99 91 80 68 65 60 55 60 51 39 30 26 21 18 16 13
6 6 7 6 6 6 6 6 8 9 10 10 9 11 14 16 16 22 27 28 27 27 27 29 33 47 56 57 60 65 71 78 94 99 92 94 94 89 83 74 67 63 63 59 59 52 39 29 24 22 18 15 12 12
6 6 5 6 6 6 7 7 8 9 10 12 13 13 13 18 26 28 28 28 29 30 32 37 52 57 63 76 83 84 91 97 94 88 86 90 85 83 71 69 64 59 59 59 49 35 26 25 21 19 17 14 14 15
5 5 6 6 6 6 7 7 9 11 12 12 11 15 23 27 28 29 32 32 33 36 46 63 59 62 77 86 91 96 95 93 86 83 83 83 80 73 66 61 57 54 56 50 32 27 25 20 18 18 16 16 18 17
5 5 5 5 6 6 7 8 9 10 11 13 18 24 27 28 31 34 35 37 41 51 60 65 76 81 86 91 92 91 86 84 80 74 70 71 70 66 60 50 45 46 42 34 30 24 20 20 20 19 19 19 20 18
5 5 6 6 6 7 8 8 10 14 17 21 21 23 29 33 34 34 35 39 42 58 68 75 79 79 82 86 85 92 84 79 71 68 66 60 54 46 44 39 31 29 30 29 22 19 20 21 20 19 22 22 21 19
6 6 6 7 7 7 8 12 17 18 18 22 28 31 33 34 36 37 41 48 64 71 65 70 80 83 88 83 83 80 73 67 63 54 44 41 39 34 28 24 25 24 22 20 20 19 20 21 20 21 22 23 22 20
6 6 7 7 8 9 13 17 18 19 23 30 32 35 35 36 36 36 45 56 64 71 80 79 77 79 75 72 70 63 58 52 42 39 37 32 27 22 21 18 16 17 19 18 18 17 17 19 19 21 22 22 22 21
6 7 8 9 10 13 15 17 18 24 30 34 38 38 37 39 39 42 56 61 64 67 65 69 72 72 69 66 61 51 45 37 33 27 28 23 19 16 14 12 13 15 14 14 15 16 17 18 20 21 21 21 21 20
7 8 8 10 12 16 18 21 25 29 32 34 36 36 39 42 44 50 57 60 56 58 66 65 63 64 61 54 46 38 31 29 26 22 18 14 13 11 11 11 11 11 12 13 13 14 16 17 19 21 20 20 20 19
7 8 9 12 16 17 20 22 25 28 30 32 38 41 43 46 42 41 46 52 53 55 58 58 56 53 48 38 31 28 25 22 20 16 14 13 11 10 10 10 10 11 11 12 13 14 16 16 17 19 20 22 22 27
7 8 10 15 18 20 20 21 28 34 38 43 45 48 46 44 42 42 46 49 51 52 52 52 49 44 35 29 26 24 24 20 18 16 14 11 10 10 10 10 11 11 12 12 12 13 14 16 17 16 19 27 34 32
8 9 11 16 18 18 18 26 36 38 44 46 46 48 46 46 45 45 41 41 43 47 48 45 39 33 28 26 26 26 21 18 16 14 12 11 10 9 9 9 9 10 10 10 11 11 13 14 16 15 17 28 30 45
8 10 13 17 18 18 23 32 37 38 42 44 43 45 44 44 44 42 43 42 41 40 38 36 34 30 28 29 30 24 20 16 14 12 11 10 9 9 9 10 10 10 11 10 11 12 14 15 16 18 20 31 35 39
8 9 13 16 17 20 26 32 36 41 42 46 47 48 45 44 45 47 47 46 41 40 41 39 36 34 31 28 24 21 18 15 13 12 11 10 10 9 9 10 10 11 12 12 13 15 16 17 20 20 21 34 54 64
7 9 12 14 18 20 26 31 35 39 41 44 49 50 51 49 47 48 48 45 44 42 41 41 36 32 27 26 24 20 17 15 13 12 11 10 10 11 11 11 12 13 14 13 14 16 19 21 24 38 52 66 78 87
7 9 11 13 16 19 24 31 36 38 41 46 49 50 48 48 48 46 45 44 46 48 46 41 33 26 26 26 22 18 16 15 13 13 12 12 13 13 14 16 17 18 20 19 22 24 32 42 56 69 79 80 83 88
8 9 10 12 15 17 23 29 34 38 42 45 49 50 49 49 48 46 48 51 51 48 44 39 27 24 26 23 20 19 17 15 15 15 15 14 15 17 19 20 22 22 24 34 44 51 60 67 75 78 82 86 87 86
8 10 11 12 14 16 20 27 32 38 41 43 48 49 49 51 49 48 46 49 46 44 38 31 24 24 27 23 20 19 17 16 16 17 17 16 20 23 23 26 28 29 49 56 65 66 70 80 82 85 86 84 85 88
8 9 12 16 18 17 18 22 24 26 32 36 40 43 43 44 42 42 45 43 40 35 31 27 26 24 25 21 21 19 17 16 17 18 18 20 26 28 32 35 36 59 62 68 73 79 85 84 85 86 86 86 88 89
8 9 10 12 15 18 19 19 21 22 26 28 28 32 33 33 33 34 35 35 32 28 26 22 24 22 24 21 20 19 18 16 18 19 19 25 28 32 40 43 65 72 76 80 81 85 84 85 87 88 87 87 88 89
8 8 9 11 12 14 12 14 15 17 18 19 18 20 22 23 22 24 26 27 27 24 22 20 22 21 22 20 20 19 18 17 20 20 21 26 28 40 45 59 71 75 79 82 86 90 88 88 88 87 87 88 88 85
8 8 9 9 10 10 11 12 12 13 13 14 16 16 18 19 20 22 23 23 21 20 21 19 19 20 20 19 19 19 18 18 22 21 23 26 32 43 56 71 76 78 79 83 87 93 93 91 90 87 86 85 84 79
7 8 8 8 10 10 11 11 11 11 12 13 15 16 18 18 17 17 17 18 18 18 18 17 17 19 17 17 18 18 18 19 23 22 22 25 34 48 68 76 80 81 82 86 89 90 91 91 86 82 82 82 77 72
7 8 8 10 10 10 10 11 11 11 11 12 13 13 13 14 15 15 16 16 16 15 15 15 16 16 15 16 16 17 18 18 23 25 23 29 38 55 71 76 79 83 92 91 90 91 92 90 86 81 77 72 68 68
6 6 6 7 8 9 10 10 10 10 11 12 12 12 13 13 14 13 12 13 13 13 14 14 14 14 14 15 15 16 18 18 21 24 25 31 41 58 68 72 76 81 86 89 89 88 88 88 84 78 71 66 66 65
6 6 6 6 6 6 7 8 8 9 10 10 10 11 11 11 11 11 11 11 12 12 12 12 12 13 13 14 14 15 18 17 19 23 26 33 41 58 69 75 78 80 84 87 87 86 84 81 77 73 69 67 66 66
6 6 6 7 7 7 6 6 7 7 7 8 8 9 9 10 10 11 11 12 12 13 13 13 12 12 13 14 14 16 17 17 18 23 30 34 41 54 65 70 72 75 78 79 79 78 76 74 73 69 67 67 66 63
8 8 7 7 6 6 6 6 7 7 8 8 8 8 9 9 10 10 10 11 12 13 13 13 13 14 14 15 16 17 19 17 18 22 30 36 44 52 59 64 67 69 70 69 68 68 68 68 67 67 65 65 64 61
8 8 8 8 7 7 7 7 7 7 7 7 8 8 8 8 8 8 9 11 13 13 13 12 12 13 14 15 15 17 19 20 19 23 28 34 42 51 57 60 62 63 63 64 64 63 62 62 60 60 59 58 56 53
8 8 9 9 8 8 8 9 9 9 9 9 8 8 7 7 7 8 10 11 12 12 11 11 11 12 13 13 14 17 19 21 22 23 25 29 35 44 54 58 58 58 59 58 57 57 57 56 55 53 54 53 49 46

GFSWCAN_250_rhum_108.txt.gz
RH
5 6 6 6 6 6 8 7 6 6 5 5 5 4 4 5 5 5 6 7 7 8 9 11 14 16 20 22 22 21 21 22 21 27 34 69 82 95 94 100 100 100 100 100 100 100 99 92 87 83 75 70 56 44
6 6 6 7 7 8 9 8 6 6 6 5 5 5 5 6 6 7 7 8 10 10 12 14 17 21 22 22 22 22 23 25 27 41 64 83 96 93 100 100 100 100 100 100 97 91 81 72 73 72 70 52 43 38
6 7 7 8 9 9 8 7 6 7 6 6 6 6 6 7 7 8 9 10 12 13 15 22 25 22 22 22 23 24 27 31 40 58 74 83 90 95 91 99 99 99 98 93 85 75 73 66 66 72 59 43 31 22
7 7 8 9 9 8 8 7 7 7 7 8 8 8 8 9 10 11 12 14 17 19 23 22 23 24 23 24 25 31 39 46 61 68 71 79 90 94 98 96 99 98 97 87 77 67 64 68 68 52 38 27 23 21
7 7 8 8 7 7 8 8 8 9 9 10 9 9 10 10 11 13 17 19 20 21 23 23 23 24 27 34 45 48 54 69 72 74 79 90 91 96 95 96 98 97 91 78 71 65 69 62 47 39 26 24 21 18
6 7 7 7 7 7 8 8 8 10 11 12 12 12 13 13 16 20 22 22 24 26 28 29 30 32 42 59 61 60 68 73 77 80 86 91 100 95 90 95 90 87 78 71 66 68 58 44 35 30 24 20 18 16
7 6 6 7 7 6 7 8 9 11 12 13 11 11 14 20 24 26 24 25 27 28 32 36 42 50 58 62 68 80 85 91 90 91 90 90 91 88 87 83 77 70 67 69 62 50 45 36 30 27 21 19 18 17
5 5 6 6 6 7 7 8 9 10 12 12 13 20 22 24 26 26 26 27 29 30 40 53 61 62 71 71 78 95 90 90 85 86 89 86 77 76 76 64 65 63 61 54 48 42 34 30 26 23 22 22 19 20
6 6 6 6 6 7 7 8 9 13 16 18 21 22 22 25 28 30 31 32 34 37 42 51 57 67 75 79 86 85 87 82 81 78 79 74 70 71 64 51 51 45 43 40 39 36 31 24 22 22 24 23 20 22
5 6 6 6 7 8 9 11 16 18 20 22 21 23 25 28 32 33 34 36 37 45 64 67 66 78 79 80 81 80 79 80 81 77 69 60 55 44 44 37 41 37 33 31 30 28 24 21 23 23 24 24 23 23
6 6 7 8 8 10 11 13 15 18 22 24 29 30 32 35 36 36 37 42 53 64 68 72 77 81 81 77 79 84 80 73 66 52 49 39 38 36 31 26 22 24 24 23 21 21 21 18 24 22 22 24 25 23
7 7 8 9 10 10 12 15 20 23 23 25 28 30 32 36 37 39 43 53 61 72 76 80 79 77 76 79 75 67 63 56 43 41 40 34 28 23 20 18 17 15 15 15 16 18 18 17 20 21 21 23 23 25
8 8 9 9 11 12 13 16 19 22 25 28 33 35 36 39 45 48 57 73 69 63 68 70 73 76 71 63 63 61 53 46 42 35 28 22 18 15 12 11 10 11 11 12 13 14 15 15 17 19 20 21 24 24
9 9 10 11 12 15 18 21 24 28 35 40 39 41 44 48 50 54 54 45 49 64 70 76 71 64 58 57 54 52 41 36 30 24 18 15 12 11 10 10 9 9 10 11 11 12 13 14 16 18 20 21 23 26
10 10 11 11 14 18 21 24 27 30 36 38 41 45 43 42 40 44 52 60 58 63 61 57 58 58 56 52 44 35 29 26 21 18 15 14 13 11 10 10 9 9 10 10 11 12 13 14 14 16 19 22 25 31
10 11 12 13 15 19 22 25 30 35 40 42 42 43 42 44 46 50 50 48 49 54 58 59 58 52 47 38 31 25 26 21 20 17 16 14 13 11 10 9 9 10 10 10 11 12 12 12 13 16 18 20 23 29
10 10 11 14 17 24 31 35 38 43 44 41 40 42 43 46 50 48 49 53 53 56 59 52 44 38 35 30 26 30 27 22 18 17 14 13 12 10 10 9 10 10 11 11 12 12 13 14 14 15 16 17 23 33
11 11 15 17 23 29 32 33 35 36 37 40 44 46 48 47 47 49 50 52 53 50 47 44 41 39 31 28 30 30 24 20 18 16 15 12 10 10 10 10 10 10 10 11 11 11 13 14 16 18 20 23 28 33
12 13 15 18 22 28 34 36 36 36 40 47 51 53 52 52 50 50 51 52 52 52 50 46 41 34 32 32 33 30 22 20 18 16 15 12 10 10 10 10 11 11 12 12 13 14 15 16 18 22 24 33 46 62
10 12 14 18 22 27 33 37 40 42 44 48 50 50 51 51 53 54 54 54 54 52 50 43 37 34 32 33 35 27 22 20 18 17 15 13 11 11 11 12 13 14 14 14 14 15 17 21 28 37 52 66 72 78
9 10 13 17 20 23 25 34 39 45 47 48 52 52 53 56 55 54 53 53 51 48 44 40 35 33 32 32 32 28 23 20 17 17 15 14 13 13 14 16 17 18 19 20 23 28 39 48 59 64 68 74 79 83
10 12 13 14 16 22 26 30 32 36 39 42 46 49 49 50 51 51 53 50 46 44 40 35 34 33 31 32 31 27 23 21 17 18 15 16 16 15 18 22 21 24 25 30 42 51 61 64 67 73 77 80 85 86
10 12 14 16 18 18 23 29 32 37 39 40 43 45 46 47 47 50 47 46 42 40 37 36 35 30 28 28 30 26 24 22 18 18 16 16 18 18 22 24 27 31 34 49 56 66 68 70 79 81 82 88 90 89
9 9 12 16 20 24 23 26 26 27 29 32 34 38 40 40 39 38 39 36 34 34 34 31 28 26 26 27 27 26 24 21 19 19 17 17 19 20 25 29 35 43 55 62 65 71 73 77 83 84 88 91 91 89
8 8 9 10 11 15 17 20 23 23 23 25 26 27 28 28 29 30 29 28 27 28 29 27 23 24 24 24 25 23 21 20 18 19 18 19 20 21 26 32 41 47 59 68 72 74 75 80 83 88 90 89 88 86
8 9 9 9 10 10 11 11 13 15 17 17 18 19 21 22 22 22 22 22 21 21 22 22 22 19 20 22 20 20 18 18 17 17 18 18 20 22 24 27 36 44 63 74 77 80 82 81 83 87 88 88 89 87
8 9 9 10 11 11 11 12 12 13 14 14 15 17 17 16 16 17 18 18 19 19 19 18 17 17 18 18 17 16 16 16 16 15 17 17 19 22 23 25 32 38 56 68 74 78 79 80 82 82 84 86 85 81
7 7 8 9 9 10 10 10 11 11 12 13 14 14 14 14 15 16 15 15 16 16 15 14 15 15 15 14 13 14 14 14 14 14 15 16 17 21 24 25 31 36 50 61 68 74 75 76 78 78 78 77 75 74
6 6 6 7 7 8 8 9 10 10 11 12 12 12 12 13 13 13 13 14 13 12 13 13 13 13 13 12 12 13 14 13 13 14 15 17 16 20 23 26 30 36 46 58 64 69 69 71 73 72 72 72 71 69
6 5 5 6 6 7 7 7 8 8 8 9 9 10 10 11 10 10 10 10 11 11 11 11 11 11 11 11 12 13 13 12 13 14 14 16 18 19 21 24 28 34 43 55 63 66 66 67 68 68 65 66 65 63
7 7 7 6 6 6 5 5 6 6 6 7 7 7 7 7 7 7 8 8 8 9 9 9 9 10 10 11 11 11 12 12 12 13 14 17 19 20 20 22 28 34 42 51 58 61 63 64 64 62 62 60 60 59
9 8 7 7 7 7 8 8 7 6 6 6 6 6 6 6 6 6 6 7 8 8 8 8 8 9 10 10 10 10 10 11 12 14 15 16 19 21 20 22 28 35 40 46 52 56 57 57 56 56 56 54 52 52
9 8 8 9 9 8 8 7 7 8 8 8 8 8 8 9 8 8 8 8 8 8 8 8 9 10 10 10 10 10 10 11 11 12 13 15 16 18 20 23 26 30 34 38 43 47 50 51 52 52 51 51 49 44

GFSWCAN_250_rhum_111.txt.gz
RH
4 5 5 5 5 5 4 4 5 5 6 7 7 7 7 6 5 5 5 5 5 5 5 6 7 8 8 10 16 18 18 21 22 21 18 22 24 24 24 29 47 66 75 89 96 96 97 98 100 100 100 96 98 94
5 5 5 5 5 5 5 6 7 7 6 7 7 6 5 5 4 5 5 5 5 6 7 8 8 9 11 15 17 20 21 23 23 22 23 25 24 28 34 60 79 86 90 99 100 97 99 100 100 98 100 96 84 75
6 6 5 6 7 7 7 7 7 7 7 6 6 6 5 5 5 5 5 6 7 7 8 10 11 13 15 17 19 21 24 25 24 24 24 25 26 34 61 82 93 97 100 100 99 96 100 100 100 100 89 79 67 52
6 6 6 7 7 7 7 7 7 7 7 6 6 6 6 6 6 7 7 8 8 9 10 12 14 16 18 20 24 24 26 26 26 26 26 30 45 67 92 95 99 100 99 99 99 100 100 100 93 81 77 73 61 51
7 7 8 8 8 8 8 8 8 8 8 7 7 7 8 8 8 8 9 10 12 13 13 15 15 19 24 24 26 26 26 27 27 28 32 51 70 84 91 99 98 99 100 99 99 100 100 93 86 86 82 65 50 36
8 8 8 9 9 8 9 9 9 10 9 10 10 9 8 8 9 10 11 13 15 18 18 25 22 24 26 26 26 28 28 28 32 43 60 66 84 90 96 99 99 100 100 100 97 100 90 88 81 85 69 52 36 31
8 8 8 9 9 10 10 11 12 12 11 11 10 9 10 13 14 16 19 20 22 24 24 24 26 27 27 28 31 34 35 43 56 71 78 85 82 89 96 98 88 98 98 97 94 83 80 80 79 70 55 41 33 27
7 8 8 9 10 9 10 12 13 12 13 12 10 11 15 16 18 21 24 24 25 25 26 28 31 36 38 48 53 57 62 66 71 79 84 80 87 95 95 91 93 99 93 88 86 79 77 75 65 54 42 37 30 24
7 7 8 8 9 9 10 11 12 12 12 11 10 12 16 19 21 23 25 29 29 29 29 30 32 41 47 66 74 74 74 77 79 84 81 86 90 93 82 84 78 81 79 77 73 70 62 56 51 38 34 35 26 25
8 8 8 8 8 8 9 9 10 11 12 14 15 15 15 18 24 27 30 31 31 33 35 41 43 51 58 61 67 71 80 83 89 83 89 86 84 84 74 74 75 73 64 59 53 53 50 43 36 35 34 29 28 28
6 7 7 7 8 9 10 11 13 18 19 18 18 21 28 30 31 32 32 34 36 41 47 53 65 69 64 72 70 74 78 85 90 91 84 81 76 74 65 51 51 46 44 42 40 36 33 33 32 32 29 26 29 30
7 7 8 9 10 10 11 14 16 16 14 17 24 29 32 33 33 35 36 38 41 47 58 64 66 70 70 78 83 87 92 87 86 78 74 64 56 52 47 42 35 27 24 25 24 26 26 27 27 25 24 25 28 28
7 8 8 9 8 8 10 12 14 16 20 26 31 33 32 34 40 42 40 41 45 48 51 57 68 74 84 89 89 85 80 72 64 60 53 47 42 30 23 20 19 18 17 16 16 16 18 19 21 22 23 24 24 26
8 8 8 8 10 15 18 18 18 23 28 32 35 38 41 42 42 38 41 49 52 55 65 79 85 90 92 87 78 75 68 60 55 46 37 30 23 20 18 16 14 13 12 12 12 13 14 16 17 16 20 21 21 23
8 8 9 11 16 17 18 20 25 30 36 39 42 42 41 41 44 47 54 51 53 67 81 88 95 95 82 75 69 61 56 48 41 33 27 24 20 16 13 12 11 10 10 10 10 11 12 13 14 15 17 18 19 22
9 10 11 12 15 18 21 26 30 33 38 39 38 40 43 42 43 47 47 51 64 75 91 88 78 74 70 64 56 53 44 37 34 29 23 19 15 14 12 11 10 10 9 10 10 11 12 12 13 14 16 18 19 22
10 11 14 16 18 21 25 28 32 38 40 40 37 36 35 38 44 50 56 58 65 65 71 69 72 70 60 55 48 40 39 35 29 22 17 17 15 13 12 11 10 9 9 10 10 11 12 12 13 14 15 16 18 20
10 13 15 16 20 26 29 34 43 46 41 37 39 42 46 50 58 58 57 61 62 64 68 66 59 55 47 41 41 39 36 32 24 19 18 17 15 12 11 10 9 9 9 10 11 12 12 12 13 14 15 17 18 19
11 13 15 19 21 27 35 38 40 36 38 43 45 47 50 52 52 54 55 56 59 63 60 55 52 48 44 41 38 37 35 31 23 19 18 16 14 13 11 10 10 10 10 11 11 12 12 12 13 14 16 16 17 20
12 14 19 22 25 27 29 31 34 37 41 46 48 49 51 54 54 53 53 54 54 53 50 49 50 47 44 40 38 36 34 30 24 21 18 16 14 13 11 11 10 11 11 11 12 12 13 14 15 16 17 19 21 25
10 12 17 21 24 25 26 29 34 38 42 44 48 49 49 51 51 52 52 54 52 49 47 46 46 43 39 40 37 34 32 29 23 22 19 16 15 14 13 12 11 12 13 14 14 13 14 15 17 18 20 22 30 51
9 10 12 17 19 26 27 28 32 35 35 38 43 48 49 51 53 53 56 54 50 49 47 47 43 41 41 39 37 34 32 29 24 22 20 17 16 15 14 14 13 15 16 18 18 16 17 20 24 30 40 59 71 73
11 12 11 13 16 19 26 29 30 33 34 38 40 41 44 46 48 52 50 50 50 50 49 47 41 41 40 37 35 31 29 25 24 23 20 18 17 15 16 16 16 19 21 22 23 24 30 37 49 62 66 74 80 83
10 12 13 16 17 20 20 26 30 32 32 34 35 38 39 41 44 45 46 44 45 47 46 43 39 36 33 31 29 30 28 26 22 23 21 19 17 16 17 18 18 22 25 28 28 41 49 59 70 72 74 77 80 83
9 11 12 15 18 21 23 24 27 30 34 38 39 38 38 37 38 39 38 38 38 39 39 35 31 29 29 27 24 28 25 24 23 20 20 19 17 18 17 19 20 24 27 32 35 50 55 63 73 77 77 81 84 83
8 9 9 11 13 14 18 20 24 26 28 30 30 30 32 33 34 33 31 29 28 27 27 27 25 22 20 20 20 22 23 20 21 20 17 18 18 17 18 18 19 22 26 33 38 48 59 66 72 77 80 84 84 83
8 8 9 9 10 11 11 12 14 14 14 16 17 18 19 18 19 19 19 19 18 19 20 21 20 18 18 17 18 19 19 17 17 18 16 15 16 16 16 18 18 21 24 26 33 37 48 60 68 71 76 78 77 75
8 8 8 9 10 10 10 11 11 11 12 13 14 14 14 15 15 15 14 14 15 16 16 15 16 16 15 14 15 15 15 15 14 15 14 14 14 15 15 16 18 19 21 23 26 32 37 50 60 65 66 69 70 69
6 6 6 7 7 8 8 9 10 11 11 11 12 12 12 12 12 12 12 13 13 13 13 12 12 12 12 13 13 13 13 13 12 12 12 13 14 14 14 16 17 19 20 21 24 26 32 36 50 60 62 64 65 64
6 6 7 7 7 8 8 9 9 8 8 9 9 10 10 10 10 10 10 10 11 11 11 11 11 11 12 12 12 11 11 11 11 11 12 12 12 13 14 14 15 18 19 20 22 26 30 35 41 49 56 62 64 63
6 7 7 7 7 6 6 6 6 7 8 8 8 8 8 8 8 8 9 9 10 10 10 10 10 10 10 10 10 10 11 11 11 11 11 11 11 12 13 13 14 16 18 20 21 22 24 29 34 39 44 49 52 54
8 8 8 8 7 7 8 8 8 8 8 7 7 7 7 7 7 7 8 9 9 9 9 9 9 9 9 10 10 11 11 11 11 11 11 11 11 11 12 13 14 14 15 17 20 21 24 27 32 36 40 43 46 47
5 7 8 8 8 9 8 8 8 8 8 7 7 7 7 7 8 10 12 12 11 11 10 10 10 10 10 10 10 11 12 11 11 11 11 11 11 12 12 13 13 14 15 16 18 20 22 25 28 31 34 36 38 38

GFSWCAN_250_rhum_114.txt.gz
RH
2 3 3 3 4 4 4 4 4 4 4 4 4 4 5 5 5 6 6 6 6 6 6 6 6 6 6 8 9 9 9 11 12 11 12 15 18 19 22 23 23 22 22 23 33 78 89 83 83 86 91 94 85 86
3 3 3 3 4 4 4 4 4 4 4 4 5 5 5 5 5 6 6 7 6 8 8 7 7 8 8 9 9 10 10 9 12 13 18 19 20 23 24 22 24 24 26 41 77 85 89 98 97 93 89 86 95 97
3 4 4 4 5 5 5 4 4 5 5 5 5 5 6 7 7 7 7 7 7 6 6 7 8 8 9 10 10 11 10 13 13 14 17 20 26 25 25 25 26 33 53 78 84 83 86 94 94 94 94 100 100 100
5 5 5 6 5 5 5 5 5 5 6 7 7 7 7 7 6 6 6 6 6 7 7 7 8 9 10 11 10 10 11 14 19 22 23 25 29 28 27 27 38 56 76 78 80 85 87 96 93 88 94 100 100 88
6 6 6 6 6 6 7 8 8 8 8 8 7 6 6 6 6 6 6 6 7 7 8 10 11 10 12 10 10 15 21 22 22 24 26 28 29 28 31 44 60 68 76 76 82 88 96 93 91 100 100 98 93 86
7 7 7 7 7 8 8 8 8 8 8 7 7 6 6 6 6 6 6 7 8 10 11 11 10 10 15 20 21 23 25 25 27 28 28 30 31 32 43 48 72 83 86 95 95 100 95 92 99 99 96 94 87 72
7 7 7 8 8 8 9 9 9 8 8 7 7 7 6 7 7 8 10 10 13 14 14 16 20 20 22 26 29 30 31 31 29 28 28 29 35 46 62 69 79 80 89 96 96 94 94 100 97 94 91 87 88 67
8 8 8 9 10 11 11 10 9 9 8 8 7 7 9 9 10 10 13 18 20 19 18 22 27 30 32 31 31 31 29 29 29 31 34 44 52 58 66 76 88 88 90 98 99 98 95 99 96 89 89 92 81 63
7 8 9 11 12 11 10 9 9 9 9 8 9 10 10 10 12 14 17 20 23 24 29 30 31 32 30 32 33 32 34 40 41 47 58 70 80 79 84 86 85 91 92 91 93 95 86 81 84 87 89 82 73 56
9 10 10 11 10 10 9 9 8 9 10 11 10 10 10 12 16 20 25 27 30 30 29 28 27 29 31 35 44 50 51 57 63 76 81 85 84 82 87 93 90 88 90 83 71 79 80 78 79 75 70 63 62 48
8 8 9 10 10 10 11 11 12 14 14 12 12 12 16 19 24 32 32 31 31 30 29 31 33 37 40 51 56 56 66 69 79 79 81 82 82 81 80 81 82 75 72 71 74 69 67 68 62 54 53 52 48 45
8 9 9 9 9 10 11 12 15 16 15 13 16 22 26 31 33 32 32 33 34 32 36 42 45 49 51 66 64 68 71 77 84 81 79 76 73 68 66 61 62 60 58 55 46 39 40 43 44 40 40 42 40 38
7 7 7 7 8 9 11 14 14 14 14 17 21 28 32 35 35 34 35 33 32 33 38 45 51 60 69 70 78 82 86 86 78 76 72 73 70 62 52 44 36 31 29 26 22 23 25 28 30 32 35 34 34 32
7 6 7 8 9 10 14 14 14 16 22 30 35 35 34 31 31 33 34 34 37 42 46 53 65 70 75 79 83 85 76 71 66 65 64 60 54 42 33 25 20 19 18 16 15 14 15 16 17 21 22 23 26 26
7 8 10 12 11 12 12 14 17 22 26 28 31 30 27 31 37 40 38 40 47 53 64 73 76 80 82 79 74 71 70 68 63 52 47 42 32 24 21 19 17 14 13 12 11 11 11 12 13 15 17 18 21 24
8 9 10 10 10 12 15 17 19 20 25 28 28 32 37 38 38 39 44 51 57 64 75 79 79 76 72 70 72 70 61 54 51 41 31 26 23 20 19 15 13 12 11 10 10 10 10 11 12 13 14 16 18 21
8 7 8 11 13 16 18 19 20 23 26 27 30 38 39 37 35 37 42 50 59 65 70 71 70 68 64 64 62 56 52 42 34 29 27 25 20 16 14 13 12 11 10 9 9 9 10 10 11 12 14 16 16 18
8 9 10 13 17 19 21 24 27 30 31 35 38 38 37 36 42 47 53 52 53 58 61 62 62 64 64 58 49 42 37 35 33 29 24 21 17 14 13 12 11 9 9 9 8 9 10 10 11 12 13 15 15 16
10 13 14 15 16 20 22 25 26 26 26 30 35 39 42 45 48 48 46 49 48 44 48 52 53 53 49 46 42 40 41 40 35 28 23 21 17 14 13 12 10 9 9 9 9 10 10 11 12 12 14 16 16 16
12 14 16 18 20 22 25 29 31 36 40 44 45 45 46 46 49 50 51 47 46 46 50 50 49 49 46 45 46 45 43 42 35 27 22 20 18 16 14 12 11 10 10 9 10 10 11 11 12 13 14 15 17 20
11 14 17 19 21 22 22 23 28 36 43 40 40 40 41 44 46 49 50 51 50 50 49 49 49 48 46 44 43 43 42 40 34 28 22 21 18 16 15 13 12 11 11 10 11 12 12 12 13 14 15 16 18 19
10 12 13 16 21 26 29 32 37 40 37 36 39 42 43 45 47 49 51 48 47 48 50 49 49 48 47 46 45 43 42 40 34 29 23 22 20 17 15 14 13 13 12 12 13 14 14 14 14 15 16 18 18 20
10 11 12 14 15 19 25 29 30 34 36 36 37 39 40 42 44 48 46 47 49 53 52 50 49 47 47 45 43 41 40 36 32 28 23 22 22 20 17 16 14 14 14 14 15 17 16 16 16 17 19 20 22 35
11 11 13 16 18 20 21 25 28 32 34 36 36 38 38 40 42 43 44 45 48 50 49 48 47 46 43 43 41 38 36 32 29 27 24 22 21 22 19 17 16 15 16 16 18 19 20 21 24 29 35 44 53 63
10 12 13 16 18 24 25 26 27 29 31 33 34 35 36 37 38 39 41 42 43 43 42 40 39 38 36 36 35 35 31 28 25 23 24 21 20 21 20 18 17 16 16 18 20 22 23 23 30 39 51 59 65 72
8 10 11 14 18 20 24 25 26 30 30 32 34 35 37 39 40 39 36 34 35 35 33 32 31 29 28 28 28 27 24 23 21 20 21 20 20 20 20 19 17 17 17 18 19 22 26 27 30 41 50 60 68 73
7 8 9 9 11 12 13 15 17 21 22 25 26 27 28 29 28 26 24 24 23 23 24 24 23 21 21 21 21 20 20 19 19 19 18 18 19 18 18 19 18 17 18 18 19 20 24 29 33 35 45 50 56 60
8 8 8 9 9 10 10 10 11 11 12 14 15 15 14 15 15 16 16 16 16 17 19 20 20 20 19 18 18 18 18 18 17 16 16 16 16 16 16 16 16 16 16 17 19 19 21 23 25 28 32 35 44 51
6 6 6 7 8 9 10 11 11 12 12 12 13 13 13 13 13 13 13 14 14 15 15 15 15 16 16 16 16 16 15 15 14 14 14 14 13 13 14 14 14 16 16 16 17 18 20 21 23 23 24 26 29 33
6 6 7 8 8 8 8 9 10 10 10 11 12 12 11 11 11 11 11 12 13 14 14 14 14 14 13 14 14 14 13 13 13 13 13 12 12 12 13 13 13 14 14 15 15 16 18 20 22 22 24 26 27 30
6 6 7 7 7 7 7 6 7 7 8 9 10 10 10 10 10 10 11 12 12 13 13 12 12 12 12 12 13 13 12 11 11 11 11 11 11 12 12 12 12 13 13 14 15 16 16 17 18 20 21 22 24 25
6 7 7 7 7 8 8 8 7 7 8 7 8 8 8 7 8 9 10 12 12 12 10 10 10 10 10 10 11 11 10 10 11 11 11 11 11 11 11 11 12 12 13 14 14 16 17 17 17 18 19 20 23 26
5 5 5 6 7 8 8 8 8 8 8 8 8 8 7 7 7 8 10 9 8 8 8 8 9 9 9 10 10 10 10 10 11 11 11 12 12 11 11 11 12 12 13 14 15 15 16 16 16 16 17 18 19 20

GFSWCAN_250_rhum_117.txt.gz
RH
2 2 2 2 2 2 3 3 4 4 4 4 5 5 5 5 6 7 7 6 7 8 8 9 8 7 8 9 8 8 8 8 9 9 9 10 10 10 11 12 13 14 16 19 21 31 31 22 20 24 37 57 80 100
3 2 2 2 3 3 3 4 4 4 4 4 5 5 5 6 6 6 6 7 7 8 8 7 7 8 7 8 9 8 10 10 8 8 8 10 10 10 12 14 16 19 22 21 25 26 24 21 26 42 64 89 100 96
3 3 3 3 3 3 4 5 5 4 4 4 5 5 5 6 6 6 6 6 6 6 6 7 7 7 8 9 9 11 10 10 9 8 8 9 11 14 16 17 19 23 25 26 26 26 28 41 55 76 98 96 96 87
3 4 4 4 4 5 5 5 5 5 5 5 5 5 5 5 6 6 7 7 7 7 7 8 10 11 10 9 10 10 10 8 8 10 11 14 16 18 19 21 23 27 28 26 29 36 56 74 85 97 99 92 90 90
4 5 5 5 6 6 6 6 5 5 5 5 5 6 6 6 6 6 7 8 9 9 11 11 8 8 8 8 9 9 9 9 10 13 15 18 22 22 23 26 31 30 28 34 47 79 84 92 100 100 100 100 93 87
6 6 6 6 6 6 6 6 6 6 6 6 7 7 8 9 9 9 9 9 9 8 8 8 8 6 7 8 7 8 11 14 16 17 22 26 29 26 27 26 26 32 40 53 77 84 87 89 89 91 100 96 90 93
7 7 7 7 7 7 7 7 7 7 9 9 9 9 8 8 7 7 7 6 7 7 8 8 9 9 10 12 15 18 19 20 20 24 26 27 29 27 25 28 30 35 44 62 84 84 84 91 92 95 95 92 93 93
8 8 8 9 10 10 9 9 9 9 8 7 7 7 7 6 6 6 7 7 8 9 10 9 11 15 19 22 21 20 22 23 24 27 32 34 31 28 26 30 39 47 60 79 88 96 97 92 93 95 96 96 89 92
8 9 9 9 9 10 10 10 9 8 7 7 7 7 7 7 7 8 8 8 10 11 15 19 20 22 23 25 28 27 29 32 34 33 30 28 27 28 29 36 44 59 77 85 89 89 93 94 98 99 94 92 84 87
10 10 10 11 12 11 10 9 9 8 8 8 8 7 8 9 9 9 10 10 14 20 24 24 24 28 30 32 36 36 34 32 31 29 27 27 28 34 42 55 68 80 88 90 91 92 90 87 91 93 86 78 80 86
11 12 11 11 12 11 10 10 11 11 11 10 10 11 12 12 13 12 15 19 25 29 28 32 35 37 41 35 32 31 31 34 33 37 42 55 70 75 83 89 92 97 96 94 88 86 83 80 72 72 79 80 78 75
12 12 12 12 12 12 13 14 12 10 9 10 12 14 16 17 18 22 28 32 36 38 38 35 32 30 33 34 34 38 50 55 66 67 77 88 82 84 88 88 87 82 76 70 67 66 66 66 64 63 60 59 61 63
9 10 12 13 13 14 15 13 12 13 15 16 18 21 22 27 33 37 37 38 36 32 31 31 39 44 46 53 60 75 86 87 79 86 86 81 79 78 74 73 72 70 64 55 50 48 45 41 39 38 40 45 46 48
10 11 12 13 14 15 13 12 14 16 18 20 25 30 30 29 30 33 34 34 36 39 42 46 57 66 73 80 84 90 82 81 84 82 76 71 68 65 59 51 43 36 31 28 27 26 26 26 26 27 28 28 29 31
9 10 10 11 12 13 12 13 14 17 19 20 21 24 27 33 34 37 42 47 49 51 55 63 73 79 83 82 76 78 79 76 74 72 70 63 55 44 36 27 23 20 18 17 16 15 14 14 14 15 16 19 21 23
8 7 8 9 11 13 14 16 16 17 20 18 21 28 33 33 36 41 44 45 46 54 59 71 85 85 84 77 77 75 71 66 63 59 54 46 36 29 24 21 19 16 12 12 11 11 10 10 11 11 12 14 16 18
7 7 8 11 14 16 17 16 16 16 18 24 32 35 33 37 40 43 45 45 48 58 70 73 76 76 70 74 70 66 62 54 52 46 38 33 28 24 22 19 16 14 12 11 10 10 9 9 9 10 11 12 14 15
8 8 9 12 14 17 18 17 16 21 29 37 38 36 38 40 40 39 39 41 53 64 67 68 68 73 74 67 61 56 54 49 40 35 32 29 24 21 20 16 14 13 12 11 10 9 8 9 9 10 11 12 13 14
9 9 11 13 15 17 20 23 28 33 38 40 37 34 34 35 35 38 44 52 55 55 56 63 67 65 62 58 53 49 42 39 39 36 35 30 23 20 18 16 14 13 12 10 9 9 9 9 10 10 11 13 14 15
9 13 15 15 16 18 19 23 28 31 32 32 32 34 37 40 42 43 45 45 46 52 57 57 56 55 51 46 42 42 44 45 41 36 35 31 24 20 18 16 14 12 11 10 9 9 9 9 10 11 12 12 13 14
8 12 16 21 21 21 21 24 27 30 34 37 40 41 42 44 43 44 47 49 51 51 49 48 48 46 45 44 44 43 43 43 40 39 35 30 25 21 19 18 14 13 12 10 10 10 10 10 10 10 11 12 14 14
10 10 12 16 19 21 23 26 31 38 38 36 37 38 39 41 42 43 45 45 45 46 47 47 47 48 46 44 44 45 44 41 40 38 36 32 27 22 20 19 16 14 13 12 12 11 11 12 12 12 13 13 14 14
10 11 12 13 14 18 23 27 29 32 34 36 37 37 38 41 44 46 44 46 46 46 46 47 46 44 44 44 44 43 41 41 41 37 34 32 27 22 21 21 20 16 14 13 13 13 13 14 14 14 13 14 14 16
10 10 12 15 18 19 20 23 28 30 32 36 39 40 40 41 42 41 42 44 46 46 46 47 46 48 47 45 46 45 40 36 34 33 31 29 25 22 22 21 20 19 16 15 14 14 14 15 16 16 15 15 16 18
9 10 10 15 18 23 24 23 25 27 31 32 32 33 34 35 38 40 41 42 44 46 48 47 46 45 43 41 39 36 34 32 30 29 30 26 23 21 20 20 20 19 18 17 16 15 16 17 18 19 19 19 22 27
7 8 9 11 15 18 22 25 26 28 30 32 34 35 36 38 39 40 38 38 39 40 40 40 38 36 34 31 30 29 27 27 26 27 25 22 21 20 20 19 19 20 19 18 17 16 16 16 18 19 22 22 24 28
7 7 7 7 10 11 13 17 20 24 28 32 32 33 34 36 35 32 31 33 32 30 28 28 27 27 27 27 28 27 26 25 23 22 20 18 19 20 20 18 18 19 19 18 17 16 16 17 17 17 19 22 25 27
7 7 7 8 8 9 10 11 12 14 16 16 18 20 21 21 22 22 21 22 23 25 25 26 25 25 25 25 25 23 21 19 18 18 18 17 17 18 17 17 16 16 16 16 16 16 16 16 16 17 17 18 20 21
5 5 6 7 8 9 9 10 11 11 12 12 12 12 13 14 15 16 18 19 20 20 21 23 23 23 22 21 19 18 18 18 17 16 15 15 14 14 14 14 14 14 14 14 14 14 14 14 14 15 16 17 18 19
6 6 6 6 7 8 8 9 10 11 12 13 14 14 14 15 15 16 17 17 18 18 18 18 18 18 16 16 15 15 16 15 14 13 13 13 13 13 13 13 12 12 12 13 13 13 14 14 14 15 16 16 17 17
6 7 7 6 6 7 7 7 7 7 7 8 9 10 10 11 11 11 12 12 14 15 15 14 13 13 12 12 13 13 14 13 12 12 12 12 12 12 11 11 12 11 12 12 13 13 13 14 14 14 15 16 16 17
5 6 7 8 7 6 7 7 8 7 7 6 7 7 8 8 8 9 10 10 10 11 10 9 9 9 9 10 10 10 10 10 10 10 10 10 10 10 10 10 11 11 12 12 12 12 13 13 13 14 14 15 16 16
5 6 6 5 5 6 7 8 8 9 8 8 8 8 8 9 8 8 9 8 7 7 7 7 8 8 8 9 8 8 8 8 8 9 9 9 9 9 10 10 11 10 10 11 11 11 12 12 13 14 14 15 15 15

GFSWCAN_250_rhum_123.txt.gz
RH
3 3 2 2 2 2 3 3 3 3 3 3 3 3 3 4 3 3 4 4 4 4 6 8 8 9 9 10 12 13 13 13 13 14 13 14 15 16 17 20 19 16 15 14 13 10 11 15 15 14 15 15 16 17
3 3 3 2 2 2 2 2 3 3 3 3 3 3 3 4 5 7 7 6 5 5 6 8 8 9 10 10 11 10 10 11 11 10 11 12 13 14 14 12 12 12 11 10 9 11 13 17 15 14 15 15 18 20
3 3 3 3 3 3 3 3 3 3 3 3 3 3 4 4 5 5 5 5 6 6 6 7 9 8 10 10 10 10 11 10 10 8 9 10 11 12 11 11 10 10 11 10 11 14 13 12 13 15 17 18 19 21
4 3 3 3 3 3 3 3 3 3 3 3 3 4 4 5 6 6 6 5 5 5 7 7 8 9 9 10 11 11 10 10 10 9 10 11 10 10 9 10 10 12 12 12 13 12 13 16 17 18 22 23 29 33
4 4 4 3 3 3 3 3 4 4 4 4 4 4 5 5 6 6 6 6 7 7 7 8 8 9 10 11 11 10 10 10 10 11 11 11 10 10 11 13 15 12 12 13 12 13 15 17 18 20 24 29 28 24
4 4 4 4 4 4 4 4 4 4 5 5 5 5 6 6 7 8 8 8 7 8 9 8 8 9 9 10 11 11 11 10 11 10 10 10 13 14 13 12 11 13 14 14 15 15 18 21 24 28 28 26 29 44
5 5 4 4 5 5 4 5 6 6 6 6 6 6 7 7 7 7 8 8 8 8 9 9 9 10 11 12 12 11 11 12 10 12 14 15 14 14 13 14 14 16 17 17 18 21 25 28 28 27 30 37 63 85
6 6 6 6 6 6 6 6 6 7 6 6 6 6 7 7 7 8 7 9 10 10 10 11 11 12 10 11 10 11 12 12 15 15 15 16 16 15 15 17 20 22 23 25 26 27 26 27 28 30 50 76 92 100
7 7 7 7 7 7 7 7 7 7 7 7 7 7 6 6 7 8 8 10 10 11 12 10 11 12 13 14 16 16 17 18 16 17 17 17 16 18 22 26 24 25 27 28 30 30 29 30 34 51 70 88 98 100
8 8 8 8 8 8 8 8 8 8 7 7 7 6 7 8 8 8 9 10 10 12 15 15 16 15 14 14 15 16 15 15 17 20 20 21 24 28 28 27 28 29 31 32 32 32 35 40 53 73 90 98 96 95
12 12 11 10 10 10 10 10 9 9 10 10 11 11 11 10 10 12 13 13 13 13 13 14 14 13 14 17 18 19 22 22 23 25 27 29 32 29 30 32 33 35 34 32 31 35 41 48 59 73 93 98 97 98
11 11 10 10 9 9 9 8 8 8 8 8 8 8 8 8 8 9 10 10 10 12 14 15 15 19 19 19 26 28 29 31 36 35 36 35 34 35 35 35 34 32 32 32 33 40 51 59 70 81 91 96 95 93
12 11 10 10 10 9 8 8 8 8 8 8 8 8 9 10 9 10 10 11 12 15 15 17 22 23 26 30 34 35 38 38 37 39 37 35 34 33 33 33 33 34 38 42 46 51 58 67 71 73 78 82 84 86
10 10 10 10 10 10 9 9 8 8 8 9 8 8 8 9 9 11 15 18 19 22 25 27 30 33 36 36 36 40 40 38 37 39 41 45 47 50 56 64 70 72 71 70 66 63 61 60 57 56 58 62 66 68
10 10 11 10 11 11 10 9 9 9 9 11 10 10 13 15 17 21 24 26 29 33 33 38 41 40 39 38 41 52 58 66 68 69 75 74 79 83 84 82 76 70 64 58 52 46 40 35 35 39 41 40 40 40
11 11 11 11 11 11 11 9 10 11 12 15 16 17 19 22 25 26 29 32 36 37 37 37 40 48 52 61 74 82 85 89 92 84 84 84 82 80 73 69 63 55 46 38 32 26 22 21 21 21 21 20 20 20
12 12 12 13 12 12 13 12 11 13 16 20 23 22 23 27 31 32 34 34 33 33 37 45 54 68 75 91 92 88 94 87 88 89 88 82 74 68 64 54 43 33 28 25 22 19 16 15 14 14 14 14 14 15
11 12 13 14 13 13 14 16 18 20 21 24 27 26 29 32 32 32 33 33 36 40 50 64 70 83 89 95 94 86 86 88 88 84 80 73 63 54 44 35 32 30 27 22 18 15 14 12 12 12 11 11 11 11
10 11 12 13 13 13 14 21 24 27 30 32 32 32 30 29 31 34 35 42 51 54 58 65 74 78 80 79 82 82 84 85 82 78 70 59 48 40 37 34 30 27 25 20 16 15 13 12 11 11 9 9 9 10
9 9 11 12 14 14 20 24 29 32 33 33 34 33 33 34 37 38 39 42 48 57 67 71 69 71 71 76 84 85 82 76 73 66 56 44 41 39 37 34 30 25 23 20 17 16 14 13 11 10 9 8 8 9
8 10 11 13 15 17 22 28 29 28 27 30 31 33 35 39 40 40 43 50 58 63 68 69 70 71 76 79 78 74 69 68 63 54 47 45 42 39 38 35 29 25 21 21 19 17 15 13 12 11 10 9 9 9
9 10 10 12 14 16 17 18 20 23 32 33 35 36 37 38 42 47 51 56 62 67 70 72 68 65 66 66 61 59 59 58 53 49 47 44 43 41 40 35 31 25 20 19 19 18 18 16 14 12 11 11 10 10
9 10 11 12 13 14 17 19 22 24 31 34 36 37 40 41 42 43 46 50 52 56 57 55 54 54 55 55 54 54 52 50 48 46 45 45 43 40 38 34 31 26 22 20 18 17 17 17 17 14 13 12 12 12
9 8 10 13 14 14 15 18 22 26 27 30 30 32 35 38 41 40 40 40 41 43 45 47 49 49 50 51 51 49 47 45 45 45 45 43 41 38 35 32 30 27 22 21 19 17 17 16 16 17 16 14 13 13
7 9 9 9 11 14 16 18 20 22 27 30 31 31 32 34 36 38 39 40 41 41 43 43 45 47 49 48 46 45 44 44 45 45 41 39 37 36 33 28 26 24 22 20 19 17 17 18 17 17 17 17 16 14
7 8 8 9 10 11 12 15 17 21 24 25 28 29 31 32 34 36 36 37 37 38 39 40 41 41 41 41 43 44 44 43 42 41 38 37 36 34 29 25 21 19 20 18 18 18 17 17 16 16 16 15 15 15
6 7 8 7 9 10 11 12 13 16 20 23 25 28 30 32 32 30 33 36 38 37 36 36 36 38 39 40 40 40 39 39 39 39 38 35 31 26 22 19 17 17 17 18 17 17 16 16 15 15 15 15 15 15
6 6 7 7 8 9 8 10 12 14 16 18 21 24 26 26 25 29 34 34 35 35 35 36 36 36 37 38 38 38 37 37 36 36 33 28 24 21 19 18 17 16 17 17 16 15 14 14 13 13 14 14 13 13
6 6 6 6 6 7 8 9 10 11 11 13 16 19 21 23 26 28 29 30 31 33 34 35 36 35 35 34 32 31 31 29 25 19 16 14 14 15 16 16 16 15 14 14 13 13 13 12 12 12 12 12 12 12
6 6 6 6 6 7 7 7 8 8 10 11 13 15 16 18 19 20 21 22 23 24 24 25 25 25 24 23 22 20 18 17 16 14 13 14 14 14 14 13 13 13 13 13 12 12 12 12 12 12 12 11 11 11
5 5 6 6 6 7 7 8 8 8 8 8 8 10 11 12 14 15 16 16 17 17 17 17 18 18 16 15 13 12 12 13 14 14 14 13 13 12 11 11 11 11 11 11 11 10 10 10 10 11 11 11 11 11
5 5 5 5 6 6 6 7 7 8 8 8 8 8 9 9 9 9 10 10 10 10 11 12 12 12 12 11 11 12 12 12 12 11 11 10 10 10 10 10 10 10 10 10 10 10 10 11 11 11 11 11 11 11
5 5 5 5 5 5 6 6 7 7 7 8 8 8 8 8 8 8 9 10 10 10 10 10 9 10 10 10 10 10 10 10 9 9 9 9 10 10 10 10 10 9 10 10 10 10 11 11 12 12 12 12 12 12

GFSWCAN_250_rhum_129.txt.gz
RH
5 4 4 3 3 3 3 3 3 3 3 4 4 4 5 5 4 4 4 5 5 6 7 6 5 5 7 8 10 12 16 18 16 15 14 14 14 18 18 19 19 20 20 23 31 31 26 36 37 34 38 46 45 37
4 4 3 3 3 3 3 3 3 3 3 3 4 4 5 6 5 4 5 5 5 6 5 6 7 9 10 10 12 13 14 15 11 11 12 12 12 15 14 15 17 16 19 19 18 20 21 20 19 21 21 20 21 19
4 4 4 3 3 3 3 3 3 3 3 3 4 4 5 6 6 6 6 6 7 7 8 7 7 8 9 9 8 8 9 8 9 9 8 10 10 11 11 13 14 15 17 16 16 16 16 16 15 14 14 14 14 13
4 4 4 4 3 3 3 3 3 3 3 3 4 5 5 7 8 8 8 8 8 7 8 7 7 8 6 6 7 8 8 8 8 7 8 8 10 10 12 13 14 14 12 14 13 14 15 15 14 12 12 10 11 11
4 4 4 3 3 3 3 3 3 3 4 4 4 4 4 4 5 6 6 7 8 8 7 6 5 6 7 6 6 6 7 8 9 9 9 10 10 11 10 10 12 12 12 11 13 14 13 13 10 9 10 10 10 10
4 4 4 3 3 3 3 3 3 3 3 4 4 4 5 5 5 6 7 7 6 6 7 7 6 7 6 7 7 6 6 6 8 9 10 11 11 11 11 12 13 13 13 12 14 12 10 10 10 10 11 12 12 12
4 4 4 4 4 4 3 3 3 3 4 4 4 4 4 5 5 4 4 5 6 6 6 6 7 8 9 9 9 8 8 8 8 9 10 11 11 11 12 12 13 14 13 12 11 10 11 12 12 12 12 12 12 14
4 4 4 4 4 4 4 4 4 4 4 4 4 4 4 5 5 5 5 5 5 6 7 9 9 9 8 7 8 7 8 8 9 11 11 11 12 12 14 15 14 12 11 12 13 14 14 14 14 13 13 14 16 17
6 6 5 4 4 4 4 5 5 4 4 5 5 5 5 6 5 6 8 8 9 8 8 7 7 8 8 8 8 8 9 11 12 14 14 13 12 14 13 13 14 14 15 16 15 15 15 16 15 14 17 19 21 23
8 7 7 7 6 6 6 6 6 6 6 6 6 6 7 7 9 9 8 9 9 9 9 10 10 9 10 11 12 14 15 14 13 12 12 13 14 14 16 17 18 17 17 17 17 18 18 19 20 22 25 28 31 31
8 7 8 7 8 9 8 7 8 8 8 8 9 9 9 9 9 10 10 10 11 12 12 13 13 12 12 14 14 14 14 15 14 16 17 18 19 18 19 22 22 22 20 20 22 23 25 27 28 31 32 32 34 36
9 8 8 7 7 7 7 8 8 8 8 9 10 11 12 13 15 15 15 15 15 14 13 15 16 13 14 15 16 16 16 17 18 18 19 21 21 22 25 26 26 26 27 29 31 32 34 35 34 34 33 34 36 38
9 9 10 9 8 8 8 8 9 9 10 11 12 14 15 16 14 11 13 13 12 14 13 15 15 13 16 17 18 18 21 20 23 21 24 24 26 28 29 31 31 31 33 33 33 32 32 31 31 31 30 29 30 34
9 8 8 8 8 9 10 10 9 9 9 9 11 10 14 12 16 14 13 14 14 15 15 16 18 17 18 18 20 21 23 24 24 26 28 30 32 34 34 36 37 35 34 34 34 34 33 30 28 27 26 26 26 27
9 8 8 8 7 8 8 8 9 10 10 11 12 12 13 14 13 15 15 15 19 20 19 20 19 20 19 21 24 26 29 32 34 37 39 38 39 38 36 36 36 37 36 35 35 33 34 37 40 43 44 43 42 43
8 8 8 8 8 8 8 8 8 8 8 8 9 9 10 11 12 12 13 18 22 23 22 24 26 29 30 34 37 42 42 43 42 39 38 38 40 40 40 40 40 46 55 58 58 54 50 44 38 33 29 27 25 26
9 9 8 8 8 9 9 9 9 9 10 10 10 10 10 12 14 15 18 21 23 24 29 32 38 42 40 43 43 39 40 40 41 44 48 50 51 57 66 69 71 69 60 53 48 37 29 27 25 21 20 18 17 16
9 9 8 8 8 8 10 11 9 9 11 14 13 14 15 14 17 19 21 24 30 33 36 37 36 40 38 38 38 48 49 52 60 63 72 75 77 76 71 65 60 54 49 39 35 33 30 26 23 19 16 16 15 13
8 9 9 8 8 8 9 11 11 11 12 14 16 18 19 21 22 25 30 32 34 35 35 37 38 37 39 45 52 56 65 70 70 72 77 76 73 70 63 55 52 44 40 39 37 35 33 28 23 18 16 15 14 13
7 8 9 9 9 8 9 10 12 13 13 16 18 22 24 26 27 30 32 31 33 34 34 36 41 44 50 59 67 70 70 71 72 73 72 69 65 60 55 48 42 41 40 37 35 32 28 24 21 18 15 14 14 12
6 8 9 9 9 8 10 11 12 15 17 19 21 25 30 34 35 35 32 31 32 35 41 46 52 58 67 72 75 73 71 72 72 70 66 60 56 50 47 44 43 42 41 40 38 32 26 22 19 18 16 15 13 13
6 6 8 9 11 10 10 10 12 14 18 21 24 26 28 29 30 30 30 33 38 45 52 57 61 66 68 69 72 71 70 69 68 66 59 51 47 45 44 45 44 43 43 41 37 31 26 22 20 18 16 16 15 14
7 6 6 8 9 11 12 12 13 15 17 19 21 24 26 28 32 35 39 42 45 49 52 56 61 62 64 69 73 72 70 67 61 53 50 50 48 46 44 44 44 44 43 40 35 30 26 23 22 20 17 16 15 14
6 7 7 8 9 10 11 12 15 19 20 22 24 24 25 30 35 41 42 41 40 41 40 40 43 48 55 59 60 60 57 54 52 50 48 47 47 47 47 46 45 43 40 36 33 30 26 24 23 21 19 17 16 15
6 6 7 7 8 8 10 11 13 15 17 20 23 24 24 25 26 28 30 33 34 34 34 34 35 37 40 42 45 48 51 51 50 49 48 48 46 44 45 46 44 41 38 36 33 28 26 24 22 20 18 16 15 15
6 6 7 6 7 7 8 10 11 12 15 17 19 20 22 23 24 25 26 30 33 36 38 39 40 42 42 42 42 43 43 42 43 44 43 42 42 44 44 43 41 40 37 33 29 27 26 24 22 19 16 15 14 14
6 6 6 7 7 7 7 8 9 10 11 13 16 18 21 24 24 22 26 28 31 33 34 35 37 39 41 42 42 42 41 42 43 42 40 39 38 38 39 40 39 35 30 29 27 25 23 20 17 15 14 14 14 13
5 6 6 6 6 7 8 8 7 8 9 11 13 16 18 20 20 21 28 30 30 31 32 33 34 35 37 37 38 38 39 38 38 38 38 39 38 37 35 33 32 29 26 25 23 20 16 14 14 14 14 13 13 12
6 5 5 6 6 6 7 7 8 8 8 8 9 11 13 14 16 19 22 24 25 26 27 29 30 31 32 32 32 32 32 33 35 34 31 30 32 32 30 28 25 24 22 20 16 14 13 13 12 12 12 12 12 12
8 7 5 5 5 6 6 6 6 7 8 8 8 8 8 8 9 12 15 17 20 21 23 25 26 27 28 28 29 29 28 29 29 29 30 28 26 26 24 23 21 18 15 14 14 13 13 12 11 10 10 10 10 10
8 8 8 6 5 5 5 6 6 6 6 7 8 9 9 9 9 9 10 11 12 13 14 15 17 19 20 21 22 22 22 22 21 21 22 21 21 21 19 16 14 12 13 13 12 12 11 11 10 10 10 10 10 10
8 8 8 8 7 5 5 5 5 6 6 6 6 7 7 8 9 10 10 10 10 9 10 11 11 12 14 14 14 15 16 16 15 16 16 16 15 14 12 12 12 12 11 11 11 11 10 10 10 10 10 10 10 10
8 8 8 8 8 7 5 4 5 5 5 6 5 5 6 6 7 6 8 10 11 12 12 12 12 11 11 11 11 11 11 12 13 12 12 12 11 11 12 11 11 10 10 10 10 10 11 11 11 11 10 10 10 10

GFSWCAN_250_rhum_132.txt.gz
RH
8 7 7 7 6 6 6 5 5 5 5 4 4 4 4 4 5 5 5 5 6 7 8 10 9 8 8 6 8 8 7 7 7 9 10 12 13 15 14 15 15 15 16 18 19 18 17 19 20 20 20 21 22 28
6 5 5 5 4 4 3 3 4 4 4 3 3 3 3 4 5 6 5 5 5 5 7 7 7 7 8 10 10 9 9 9 10 12 15 13 13 14 14 14 15 13 15 15 14 15 16 16 19 19 18 18 19 19
5 5 4 4 4 4 4 4 4 4 3 3 3 4 3 4 4 5 5 5 4 4 4 5 6 7 7 8 10 12 11 12 18 21 25 29 14 10 10 9 9 11 13 12 16 16 14 15 17 17 17 16 18 17
5 5 5 4 4 4 4 3 3 4 3 3 3 4 3 4 4 5 6 6 6 6 7 6 7 8 8 11 12 14 17 19 18 20 18 17 10 7 8 10 9 12 12 12 13 15 14 15 15 16 16 15 12 11
4 4 4 4 4 4 4 3 4 4 3 3 3 4 4 5 6 7 8 7 8 8 8 9 10 11 11 11 13 13 14 11 9 10 12 11 8 7 8 9 11 12 12 11 13 14 15 13 13 14 14 12 12 12
4 4 4 4 4 4 4 3 4 3 3 3 4 4 5 5 5 6 6 8 8 8 10 10 10 10 11 10 6 6 8 7 7 8 9 11 12 8 8 9 10 10 11 12 13 11 12 13 16 15 10 11 12 13
4 4 4 4 4 4 4 3 4 4 4 4 4 4 5 5 5 5 6 7 8 8 6 7 9 9 9 8 9 9 9 10 8 7 9 10 10 9 10 12 11 10 13 13 14 14 14 14 12 12 12 12 12 12
5 4 4 4 4 4 4 4 4 4 4 4 4 4 5 5 5 5 6 6 7 8 10 12 10 9 9 10 10 10 10 10 9 9 8 8 8 10 12 11 11 13 13 13 12 11 12 10 12 13 13 13 14 13
6 6 5 4 4 4 4 4 4 4 4 4 4 5 6 6 6 5 7 7 7 8 8 8 8 8 8 9 10 10 10 10 8 8 7 7 8 10 10 12 14 13 13 11 12 14 14 14 14 14 14 14 15 14
6 7 6 5 5 4 4 4 4 4 5 5 5 5 6 6 6 8 7 7 7 7 7 8 10 11 14 13 12 11 11 12 9 7 8 10 10 13 14 12 12 12 14 16 16 15 15 15 15 15 16 17 16 17
6 6 7 7 6 5 5 5 5 6 6 6 6 6 6 6 6 7 7 9 9 10 12 14 16 13 10 10 10 9 9 9 9 11 12 12 14 14 13 15 17 19 18 17 18 18 17 17 16 18 18 18 20 21
7 7 6 6 7 8 8 8 8 8 8 9 8 8 9 10 11 11 12 12 14 13 13 12 10 11 12 14 15 12 12 12 13 14 14 15 16 19 21 22 20 17 20 22 22 21 20 20 19 20 22 23 25 26
8 9 9 8 8 8 8 9 9 9 10 10 10 10 12 12 13 14 14 13 13 14 13 13 15 16 16 16 17 16 15 15 18 17 17 16 20 22 23 21 22 26 27 26 25 25 25 27 28 28 29 28 27 27
7 7 8 9 9 8 8 8 7 8 8 8 10 9 10 10 12 11 11 15 17 18 18 18 20 19 20 22 22 21 21 19 19 23 22 22 23 23 24 26 27 30 32 34 36 36 33 32 32 31 30 29 28 27
7 7 6 6 7 9 9 9 10 10 9 10 11 8 11 14 17 21 20 20 21 20 22 20 19 24 22 21 20 22 22 29 26 23 26 28 27 30 32 34 37 40 41 40 38 36 34 32 31 30 30 30 31 33
8 7 7 6 6 7 8 9 9 10 10 12 14 12 16 16 18 20 20 20 20 20 19 20 20 22 19 24 23 24 26 28 29 31 32 34 36 38 41 42 42 41 39 39 38 37 38 46 56 60 56 50 44 39
8 8 7 7 7 6 7 7 8 8 10 11 12 13 14 16 16 18 19 18 17 21 23 26 28 26 25 25 29 30 31 32 35 38 41 44 44 44 45 48 48 46 46 56 65 66 62 52 41 34 31 29 26 24
8 8 8 7 7 7 7 7 8 8 8 9 9 11 11 12 13 14 14 12 17 22 25 28 28 29 30 33 37 36 37 39 42 45 46 46 50 53 56 67 78 77 72 64 58 48 37 34 31 28 26 22 19 18
7 8 8 7 7 7 7 7 7 8 8 9 10 10 12 12 13 14 14 16 20 26 29 30 33 36 38 38 40 43 45 47 46 46 52 69 82 84 83 78 72 65 59 51 41 38 38 36 34 30 26 22 18 15
6 7 8 8 7 7 7 8 8 8 8 9 10 13 15 16 17 18 19 22 26 28 32 35 36 36 40 42 42 43 46 52 61 72 80 85 82 80 76 68 60 56 48 42 40 40 40 37 34 30 26 21 17 15
6 7 8 8 8 9 9 9 9 9 9 10 12 13 15 17 20 22 24 26 30 33 35 37 39 41 45 50 55 64 70 76 76 79 79 78 75 69 63 57 53 47 44 43 42 42 40 37 33 28 24 21 20 18
6 6 7 8 8 8 10 11 11 11 11 12 13 15 19 22 26 30 34 35 36 36 37 41 46 49 56 66 74 78 80 79 81 78 76 74 73 65 56 52 49 46 45 44 44 43 40 36 32 28 24 22 20 18
6 6 6 7 9 9 11 10 12 14 13 14 17 17 20 23 28 32 33 35 37 38 43 49 54 61 66 68 70 76 80 81 80 78 76 73 65 56 52 49 46 45 45 45 42 40 37 34 29 26 25 24 22 19
6 6 6 6 7 9 10 13 14 15 17 18 19 21 22 24 26 27 28 32 36 40 44 48 53 57 64 68 69 68 70 72 73 70 65 60 56 54 53 51 48 45 43 42 40 38 35 32 30 29 28 25 22 21
7 7 6 6 6 7 8 10 13 16 18 20 22 24 23 23 24 24 27 29 32 35 39 40 42 44 47 49 53 56 57 56 55 52 54 55 54 53 51 50 47 44 41 40 38 36 34 32 30 29 25 22 19 17
6 6 7 7 6 6 7 7 9 11 14 17 20 21 22 23 21 21 24 28 31 31 32 34 38 41 42 42 42 42 43 46 48 48 46 46 45 46 46 46 43 41 41 38 37 36 33 31 29 24 21 19 17 16
9 7 6 7 7 7 7 7 8 8 9 11 13 17 21 25 27 23 23 26 26 28 31 32 34 35 36 36 37 38 39 39 39 41 42 42 42 42 43 44 44 43 42 40 38 36 34 29 24 22 20 17 15 14
9 9 8 6 6 7 7 7 8 8 8 8 9 10 14 19 19 16 24 28 29 30 31 32 32 34 35 35 35 36 36 37 38 37 39 40 40 40 40 42 43 41 39 38 37 33 28 23 21 19 17 15 13 12
9 9 9 9 7 6 6 6 7 8 8 8 8 9 11 11 10 13 17 22 24 27 29 31 32 33 34 34 35 36 36 37 38 39 39 38 38 38 38 38 38 37 36 32 28 24 21 20 17 16 15 13 11 11
10 9 9 9 9 8 6 5 6 7 7 8 8 8 8 8 9 11 12 14 15 18 20 22 24 27 30 32 32 32 32 33 34 36 36 36 37 37 36 35 32 31 29 26 22 18 16 15 14 12 12 11 10 10
10 10 9 9 9 9 9 8 6 5 6 7 7 8 8 9 9 9 9 10 12 13 13 13 14 17 20 22 26 28 29 28 29 29 29 29 29 28 28 27 26 24 20 17 15 15 14 13 12 11 10 10 11 11
9 9 9 9 9 8 8 9 8 6 5 5 6 6 7 8 8 7 7 8 9 10 10 11 12 13 15 16 16 17 17 19 19 19 20 20 20 20 21 20 18 16 15 15 15 14 13 12 11 11 11 12 12 12
9 8 9 8 8 8 8 8 8 8 7 5 5 5 6 7 7 5 6 9 9 9 10 10 11 11 11 11 12 12 12 13 13 14 14 16 17 16 15 14 14 14 15 15 15 14 13 13 12 12 12 12 12 13

GFSWCAN_250_rhum_135.txt.gz
RH
9 9 9 8 8 8 8 8 8 7 6 7 7 6 6 6 5 6 6 5 8 8 6 5 6 6 7 10 10 10 10 9 9 10 8 9 11 10 12 15 16 17 16 17 17 16 16 17 18 17 16 14 17 20
8 8 8 8 8 9 9 8 7 6 8 7 6 6 6 6 5 6 6 6 6 7 8 8 9 7 7 8 10 9 9 9 7 7 7 9 11 11 15 17 16 19 16 15 14 14 14 16 16 15 15 15 14 16
7 6 6 6 6 6 6 5 5 5 5 4 4 4 4 4 5 5 5 5 6 7 6 6 6 6 8 14 14 13 11 8 8 8 9 10 9 12 16 15 13 13 12 13 12 14 12 12 14 14 14 15 14 17
6 6 6 6 5 5 4 4 5 4 4 4 4 4 4 4 4 4 4 5 6 6 6 6 6 6 10 21 8 10 8 9 10 11 13 14 15 17 18 17 15 11 9 10 10 11 9 9 10 12 13 13 14 17
6 5 5 5 5 5 4 4 4 4 4 3 4 4 4 4 4 4 4 5 6 6 6 6 7 7 10 11 10 11 12 13 16 16 16 19 18 16 12 11 11 6 5 8 10 8 8 12 11 12 12 12 15 15
5 5 5 5 4 4 4 4 4 4 4 4 4 4 4 4 4 4 4 5 6 8 9 10 11 10 12 15 15 16 18 19 23 23 17 13 10 10 8 8 9 8 10 10 10 11 9 9 11 11 12 12 15 12
4 4 4 4 4 4 4 4 4 4 4 4 4 5 5 5 5 5 5 6 8 8 8 9 10 11 14 15 16 19 16 16 13 14 12 11 10 8 10 13 17 10 8 10 11 12 10 11 11 12 12 10 12 12
5 4 4 4 4 4 4 4 4 4 4 4 4 5 5 5 5 5 6 6 8 9 10 11 10 11 12 12 11 9 9 9 8 9 10 10 8 8 10 10 7 8 9 10 10 11 11 13 12 10 12 12 14 14
5 4 4 4 4 4 4 3 4 4 4 4 4 5 5 6 6 7 8 10 12 13 13 11 11 11 11 11 10 9 9 10 10 12 11 8 9 9 8 7 8 10 11 10 12 14 13 12 14 14 15 16 14 14
6 5 4 4 4 4 4 4 4 4 4 5 5 5 5 6 7 7 8 7 7 7 8 8 9 9 10 12 12 13 15 14 14 11 12 12 8 8 8 10 11 11 13 15 13 12 13 15 15 15 15 16 14 16
6 6 6 6 6 5 4 4 4 4 4 5 5 5 6 6 7 6 7 8 8 8 9 11 12 10 10 10 9 11 11 11 12 13 13 10 10 12 14 11 9 11 12 14 16 16 15 16 16 16 16 16 16 16
6 6 7 7 7 7 7 6 5 5 5 5 6 5 6 5 6 7 7 7 8 7 8 10 11 11 10 11 13 10 10 13 13 12 11 12 14 12 11 15 16 15 14 16 18 18 18 18 18 18 18 18 20 22
7 6 6 6 7 7 7 7 7 7 6 6 6 7 7 8 8 9 10 10 10 10 12 14 14 12 12 12 12 11 10 14 18 16 14 13 15 17 17 14 16 19 21 21 20 22 23 23 23 24 25 26 27 27
6 7 7 7 7 7 7 7 8 9 9 8 9 9 10 9 10 11 10 12 14 14 13 14 16 17 18 15 17 17 20 22 21 19 19 20 19 19 19 18 20 22 23 26 23 26 27 28 28 28 27 27 28 28
7 6 6 7 9 9 10 10 9 9 10 10 10 9 11 12 12 14 14 15 14 16 18 20 21 20 21 24 25 26 28 28 25 24 21 19 20 23 26 28 27 28 30 30 30 34 35 34 34 34 33 31 30 31
7 7 7 6 7 8 10 10 12 13 11 11 10 9 9 11 11 14 15 18 19 21 25 24 25 25 24 26 25 20 20 22 21 25 26 28 29 32 33 35 39 40 39 40 40 38 37 37 40 48 57 58 54 47
8 8 8 8 7 7 7 8 9 9 12 14 13 14 15 15 15 16 17 19 20 23 28 25 19 19 22 21 21 29 29 28 28 28 32 34 38 42 45 45 43 41 40 41 43 45 59 69 69 63 54 44 38 34
8 8 8 7 8 8 7 7 8 8 8 9 11 13 14 16 16 16 16 17 18 21 22 20 21 22 18 24 28 29 31 32 33 34 36 41 47 50 48 50 54 52 55 67 73 72 68 62 52 41 38 36 33 30
6 8 8 8 8 8 8 8 8 8 7 8 9 9 10 12 13 14 15 16 16 15 16 18 22 25 28 29 31 34 35 36 37 40 44 50 54 58 62 73 82 82 79 74 68 63 54 44 40 38 36 34 32 28
6 6 7 7 7 8 8 8 8 8 8 8 8 10 10 10 12 14 17 15 14 16 19 24 27 29 32 33 35 36 38 41 48 54 61 60 74 88 90 90 88 81 73 65 60 50 44 42 40 38 36 33 31 28
6 6 6 7 7 7 8 8 9 9 9 9 9 9 10 11 15 17 20 20 20 21 25 29 31 34 35 38 41 45 52 56 62 68 72 82 88 92 92 86 79 71 66 60 53 47 45 42 39 37 34 32 29 26
7 6 6 6 7 6 7 8 9 11 11 10 11 11 11 12 15 18 22 23 25 30 34 35 39 41 44 46 54 60 80 84 83 86 83 86 92 91 90 84 76 64 58 55 50 47 45 42 40 37 35 32 29 28
7 7 6 7 7 7 7 7 9 11 12 13 13 13 13 14 15 17 21 25 31 33 36 38 40 44 50 58 66 75 84 89 92 92 90 91 89 87 83 74 65 59 54 52 49 46 44 41 39 37 34 30 29 28
7 7 7 7 7 7 7 8 8 9 12 13 14 15 15 16 16 19 23 26 30 31 34 39 44 49 55 62 69 76 76 78 82 84 88 89 87 80 72 64 58 55 55 53 51 47 43 40 37 35 34 32 30 28
10 9 7 7 7 7 7 8 8 9 10 13 15 17 18 20 19 20 22 22 25 25 31 35 42 50 55 61 66 67 66 68 68 69 70 67 66 66 62 61 59 55 50 47 44 42 41 39 38 37 36 32 29 26
10 10 9 8 7 7 8 7 8 9 9 10 13 14 17 21 20 22 24 24 27 25 30 35 38 41 44 45 46 50 51 56 59 57 55 55 56 57 56 53 49 47 45 43 44 45 43 41 40 38 34 30 26 23
10 10 10 10 9 7 7 8 8 8 9 10 9 10 15 19 20 16 20 26 26 27 32 35 37 37 35 34 38 42 46 51 54 57 55 48 46 45 43 44 46 46 45 45 44 42 42 42 39 34 29 26 24 21
9 9 10 10 10 10 8 7 7 8 9 9 9 10 12 13 12 11 17 24 26 25 26 28 29 30 31 32 33 35 39 42 44 46 46 44 43 42 43 44 42 42 43 43 42 41 42 40 35 30 27 24 19 16
9 9 9 10 10 9 10 9 8 7 7 8 8 9 10 10 10 12 12 13 17 20 21 24 25 25 26 28 29 32 34 35 37 38 40 42 42 40 41 40 41 43 42 41 41 41 37 32 28 26 22 18 15 13
10 9 8 8 9 9 9 9 10 9 7 6 7 8 9 9 9 10 9 10 11 13 14 16 19 22 24 26 28 31 33 34 35 37 38 39 41 41 38 39 39 38 38 38 35 32 28 24 21 19 17 14 12 12
9 9 9 8 8 8 9 9 8 9 10 9 7 6 6 8 8 8 8 8 8 9 9 10 11 14 17 19 22 24 26 28 30 32 34 34 34 33 34 34 33 32 32 30 27 24 20 17 17 15 14 13 13 12
8 9 9 8 8 8 8 8 8 8 9 9 9 8 6 6 6 5 5 8 8 9 10 10 10 11 12 13 14 15 16 18 19 20 20 21 22 23 24 24 24 24 23 21 19 16 15 15 15 14 14 14 14 13
7 8 8 8 8 8 8 8 8 8 8 8 8 9 9 7 6 5 5 7 8 7 7 8 9 10 10 11 11 12 12 12 13 13 14 14 15 16 17 18 18 17 17 16 15 16 16 16 15 16 16 16 16 16